Regional Weather Roundup
Issued by NWS

Home | Current Version | Previous Version | Text Only | Print | Product List | Glossary Off
Versions: 1 2 3 4 5 6 7 8 9 10 11 12 13 14 15 16 17 18 19 20 21 22 23 24 25 26 27

000
ASUS45 KCYS 262310
RWRWY

WYOMING REGIONAL WEATHER ROUNDUP
NATIONAL WEATHER SERVICE CHEYENNE WY
500 PM MDT WED JUL 26 2017

NOTE:  "FAIR" INDICATES FEW OR NO CLOUDS BELOW 12,000 FEET
WITH NO SIGNIFICANT WEATHER AND/OR OBSTRUCTIONS TO VISIBILITY.

WYZ001-270000-
YELLOWSTONE NATIONAL PARK

CITY           SKY/WX    TMP DP  RH WIND       PRES   REMARKS
LK YELLOWSTONE   N/A     66  50  56 VRB7      30.39F
W YELLOWSTONE  NOT AVBL

$$
WYZ002>013-054>058-071-098>099-270000-
NORTHERN WYOMING

CITY           SKY/WX    TMP DP  RH WIND       PRES   REMARKS
JACKSON        MOSUNNY   73  52  46 SW8       30.28F
CODY           FAIR      81  49  32 S17       30.16F
GREYBULL       FAIR      88  47  24 SE3       30.06F
WORLAND        FAIR      86  52  30 NW5       30.08F
SHERIDAN       FAIR      84  53  34 SE13      30.11S
BUFFALO        FAIR      82  50  32 SE9       30.19F
GILLETTE       FAIR      82  52  35 S14G20    30.16F
HULETT         MOCLDY    84  52  32 S5        30.19S
NEWCASTLE      FAIR      79  46  31 SE13G21   30.20S

$$
WYZ014>020-022>026-101>103-270000-
CENTRAL WYOMING

CITY           SKY/WX    TMP DP  RH WIND       PRES   REMARKS
BIG PINEY      FAIR      72  50  45 VRB3      30.33F
PINEDALE       FAIR      72  43  35 NW7       30.34F
DUBOIS         CLOUDY    70  46  43 SE8       30.31S
LANDER         PTSUNNY   76  53  44 NW16      30.20S
RIVERTON       FAIR      80  49  33 NW12      30.20S
CASPER         FAIR      78  56  46 E12       30.20F
DOUGLAS        FAIR      76  53  44 SE15G24   30.24F

$$
WYZ021-027>030-104>119-270000-
SOUTHERN WYOMING

CITY           SKY/WX    TMP DP  RH WIND       PRES   REMARKS
EVANSTON       FAIR      74  51  44 NW12      30.32F
KEMMERER         N/A     75  46  35 NW3       30.34F
FORT BRIDGER   CLOUDY    73  56  56 CALM      30.35F
ROCK SPRINGS   PTSUNNY   64  58  80 NE6       30.34S
RAWLINS        FAIR      75  49  39 VRB3      30.29F
SARATOGA       TSTM      66  59  77 S14G20    30.31S
LARAMIE        LGT RAIN  62  57  83 E14       30.35S
CHEYENNE       CLOUDY    71  54  54 NE8       30.30F
TORRINGTON     FAIR      81  54  39 E17       30.18F
PINE BLUFFS    CLOUDY    75  54  46 NE12      30.24S

$$




USA.gov is the U.S. government's official web portal to all federal, state and local government web resources and services.